Location: Arborea
(39.7744°N, 8.5819°E)
Time: 22:08:58
(UTC+00:00)

Cosmos 2219 Rocket - Pass Details

Date: 24 October 2021
Orbit: 826 x 848 km, 71.0° (Epoch: 06 December)

Event Time Altitude Azimuth Distance (km) Brightness Sun altitude
Rises 18:08:50 0° 178° (S) 3,348 5.3 -18.9°
Reaches altitude 10° 18:11:24 10° 170° (S) 2,420 4.5 -19.4°
Enters shadow 18:15:47 35° 120° (ESE) 1,308 2.7 -20.3°
